Weather History for KANJ - September, 2014

Change the Weather History Date:

Monday, September 1, 2014

  Actual Average Record
Temperature  
Mean Temperature 66 °F 62 °F  
Max Temperature 72 °F 72 °F 93 °F (1953)
Min Temperature 59 °F 52 °F 36 °F (1974)
Degree Days  
Heating Degree Days 0 4  
Month to date heating degree days 0 4  
Since 1 July heating degree days 181 151  
Cooling Degree Days 1 1  
Month to date cooling degree days 1 1  
Year to date cooling degree days 109 179  
Growing Degree Days 16 (Base 50)    
Moisture  
Dew Point 62 °F    
Average Humidity 88    
Maximum Humidity 97    
Minimum Humidity 78    
Precipitation  
Precipitation 0.58 in 0.12 in 1.71 in (1982)
Month to date precipitation 0.58 0.12  
Year to date precipitation 19.50 19.29  
Sea Level Pressure  
Sea Level Pressure 29.71 in    
Wind  
Wind Speed 7 mph (SSE)    
Max Wind Speed 16 mph    
Max Gust Speed 23 mph    
Visibility 8 miles    
Events Rain , Thunderstorm    
T = Trace of Precipitation, MM = Missing Value Source: NWS Daily Summary

Daily Weather History Graph

Daily Weather History Graph

Search for Another Location

Airport or City:

Trip Planner

Search our weather history database for the weather conditions in past years. The results will help you decide how hot, cold, wet, or windy it might be!

Date:

Astronomy

Sep. 01, 2014 Rise Set
Actual Time 6:57 AM EDT 8:16 PM EDT
Civil Twilight 6:26 AM EDT 8:47 PM EDT
Nautical Twilight 5:48 AM EDT 9:24 PM EDT
Astronomical Twilight 5:08 AM EDT 10:05 PM EDT
Moon 2:06 PM EDT (9/1) 11:52 PM EDT (9/1)
Length of Visible Light 14h 21m
Length of Day
13h 18m
Waxing Crescent, 42% of the Moon is Illuminated
Sep 1
Waxing Crescent
Sep 2
First Quarter
Sep 8
Full
Sep 15
Last Quarter
Sep 24
New

Hourly Weather History & Observations

Time (EDT) Temp. Dew Point Humidity Pressure Visibility Wind Dir Wind Speed Gust Speed Precip Events Conditions
12:55 AM 59.0 °F 57.0 °F 93% 29.87 in 10.0 mi Calm Calm - N/A   Clear
1:55 AM 60.1 °F 57.9 °F 93% 29.89 in 10.0 mi ESE 4.6 mph - N/A   Overcast
2:03 AM 60.1 °F 57.9 °F 93% 29.90 in 2.5 mi SE 6.9 mph - N/A   Overcast
2:12 AM 60.1 °F 57.9 °F 93% 29.90 in 1.5 mi ESE 4.6 mph - N/A   Overcast
2:20 AM 60.1 °F 57.9 °F 93% 29.89 in 3.0 mi ESE 5.8 mph - N/A   Overcast
2:55 AM 60.1 °F 59.0 °F 96% 29.88 in 5.0 mi ESE 4.6 mph - N/A   Overcast
3:55 AM 60.1 °F 57.9 °F 93% 29.84 in 10.0 mi East 5.8 mph - N/A   Scattered Clouds
4:55 AM 60.1 °F 57.9 °F 93% 29.83 in 10.0 mi ESE 9.2 mph - N/A   Scattered Clouds
5:06 AM 61.0 °F 59.0 °F 93% 29.84 in 10.0 mi ESE 6.9 mph - N/A   Mostly Cloudy
5:55 AM 61.0 °F 59.0 °F 93% 29.82 in 10.0 mi ESE 6.9 mph - N/A   Overcast
6:04 AM 61.0 °F 59.0 °F 93% 29.82 in 10.0 mi Variable 5.8 mph - N/A   Overcast
6:55 AM 62.1 °F 60.1 °F 93% 29.80 in 10.0 mi ESE 9.2 mph - N/A   Overcast
7:08 AM 62.1 °F 60.1 °F 93% 29.81 in 10.0 mi ESE 9.2 mph - N/A   Overcast
7:25 AM 62.1 °F 60.1 °F 93% 29.81 in 9.0 mi SE 11.5 mph - N/A   Overcast
7:55 AM 62.1 °F 60.1 °F 93% 29.78 in 8.0 mi ESE 9.2 mph - N/A   Overcast
8:55 AM 63.0 °F 61.0 °F 93% 29.77 in 8.0 mi SE 6.9 mph - N/A   Overcast
9:38 AM 64.9 °F 62.1 °F 90% 29.75 in 9.0 mi ESE 9.2 mph - N/A   Overcast
9:55 AM 66.0 °F 63.0 °F 90% 29.74 in 10.0 mi ESE 10.4 mph - N/A   Overcast
10:55 AM 66.9 °F 63.0 °F 87% 29.73 in 10.0 mi East 5.8 mph - N/A   Overcast
11:24 AM 68.0 °F 63.0 °F 84% 29.72 in 10.0 mi ESE 8.1 mph - N/A   Overcast
11:55 AM 69.1 °F 63.0 °F 81% 29.71 in 10.0 mi East 6.9 mph 16.1 mph N/A   Overcast
12:55 PM 69.1 °F 64.0 °F 84% 29.67 in 10.0 mi East 8.1 mph - N/A   Overcast
1:55 PM 72.0 °F 64.9 °F 78% 29.63 in 10.0 mi East 6.9 mph - N/A   Scattered Clouds
2:55 PM 69.1 °F 64.9 °F 87% 29.59 in 5.0 mi East 9.2 mph - 0.01 in Rain Rain
3:02 PM 68.0 °F 64.9 °F 90% 29.61 in 4.0 mi Variable 6.9 mph - 0.01 in Rain , Thunderstorm Rain
3:08 PM 68.0 °F 64.9 °F 90% 29.63 in 1.8 mi SE 6.9 mph - 0.04 in Rain , Thunderstorm Heavy Rain
3:23 PM 69.1 °F 64.9 °F 87% 29.63 in 2.0 mi Variable 4.6 mph - 0.18 in Rain , Thunderstorm Thunderstorms and Rain
3:30 PM 68.0 °F 64.9 °F 90% 29.63 in 2.0 mi Variable 3.5 mph - 0.20 in Rain , Thunderstorm Thunderstorms and Rain
3:35 PM 68.0 °F 64.9 °F 90% 29.63 in 3.0 mi SSE 5.8 mph - 0.21 in Rain , Thunderstorm Light Thunderstorms and Rain
3:42 PM 68.0 °F 64.9 °F 90% 29.62 in 4.0 mi South 5.8 mph - 0.23 in Rain Rain
3:55 PM 68.0 °F 64.9 °F 90% 29.60 in 5.0 mi SE 4.6 mph - 0.24 in Rain Light Rain
4:21 PM 68.0 °F 64.9 °F 90% 29.59 in 10.0 mi SE 5.8 mph - 0.00 in Rain Light Rain
4:33 PM 68.0 °F 66.0 °F 93% 29.59 in 10.0 mi SSE 4.6 mph - 0.00 in   Scattered Clouds
4:55 PM 70.0 °F 64.9 °F 84% 29.57 in 10.0 mi SSE 8.1 mph - 0.00 in   Clear
5:33 PM 71.1 °F 66.0 °F 84% 29.61 in 10.0 mi SW 10.4 mph - N/A   Mostly Cloudy
5:55 PM 71.1 °F 64.9 °F 81% 29.59 in 10.0 mi SSW 12.7 mph 18.4 mph N/A   Mostly Cloudy
6:18 PM 71.1 °F 64.0 °F 78% 29.60 in 10.0 mi SSW 10.4 mph 23.0 mph N/A   Scattered Clouds
6:55 PM 70.0 °F 63.0 °F 78% 29.60 in 10.0 mi SW 11.5 mph - N/A   Scattered Clouds
7:55 PM 68.0 °F 62.1 °F 81% 29.61 in 10.0 mi SW 11.5 mph - N/A   Scattered Clouds
8:20 PM 66.9 °F 63.0 °F 87% 29.63 in 10.0 mi WNW 6.9 mph - N/A   Mostly Cloudy
8:32 PM 66.9 °F 63.0 °F 87% 29.63 in 10.0 mi WSW 8.1 mph - N/A   Overcast
8:45 PM 66.0 °F 63.0 °F 90% 29.64 in 2.0 mi NW 6.9 mph - 0.03 in Rain Heavy Rain
8:53 PM 64.4 °F 62.6 °F 94% 29.65 in 1.0 mi NW 9.2 mph - 0.18 in Rain Heavy Rain
8:55 PM 64.9 °F 63.0 °F 93% 29.64 in 1.2 mi NW 9.2 mph - 0.24 in Rain Heavy Rain
9:06 PM 64.0 °F 62.1 °F 93% 29.66 in 2.5 mi WNW 8.1 mph - 0.04 in Rain Heavy Rain
9:16 PM 64.0 °F 62.1 °F 93% 29.66 in 3.0 mi WNW 6.9 mph - 0.09 in Rain Light Rain
9:32 PM 63.0 °F 61.0 °F 93% 29.67 in 10.0 mi WNW 6.9 mph - 0.09 in Rain Light Rain
9:55 PM 63.0 °F 60.1 °F 90% 29.67 in 10.0 mi WNW 3.5 mph - 0.09 in   Mostly Cloudy
10:05 PM 63.0 °F 60.1 °F 90% 29.69 in 10.0 mi Calm Calm - N/A   Scattered Clouds
10:55 PM 62.1 °F 60.1 °F 93% 29.70 in 10.0 mi WSW 3.5 mph - N/A   Overcast
11:55 PM 60.1 °F 57.9 °F 93% 29.70 in 10.0 mi SSW 3.5 mph - N/A   Clear